Flag for Mexico Weather past 2 weeks in Mexico City, Federal District, Mexico

Now
82 °F

Sunny.


Feels Like: 80 °F
Forecast: 54 / 80 °F
Wind: 10 mph from East

Location: Mexico City / Licenci

Current Time: Apr 21, 2015 at 2:44:31 PM

Latest Report: Apr 21, 2015 at 1:45 PM


Visibility: 8 mi

Pressure: 30.21 "Hg

Humidity: 23%

Dew point: 41 °F

Location of Mexico CityLocation

Historic Weather in Mexico City — Graph

°F

Mexico City temperature yesterday

Maximum temperature yesterday: 81 °F (at 2:45 PM)
Minimum temperature yesterday: 61 °F (at 4:45 AM)
Average temperature yesterday: 70 °F

Past Weeks' High & Low Weather Summary

 TemperatureHumidityPressure
High82 °F (Apr 9, 4:49 PM)88% (Apr 8, 6:49 AM)30.38 "Hg (Apr 8, 6:49 AM)
Low48 °F (Apr 7, 7:22 AM)8% (Apr 10, 2:46 PM)29.58 "Hg (Apr 21, 12:48 PM)
Average67 °F48%30.12 "Hg
* Reported Apr 6 1:44 PM — Apr 21 12:48 PM, Mexico City, Weather by CustomWeather, © 2015

Note: Actual official high and low records may vary slightly from our data, if they occured in-between our weather recording intervals... More about our weather records

Advertising

Mexico City weather history for previous 24 hours

 ConditionsComfort  
Time TempWeatherWind HumidityBarometerVisibility
12:48 PM
Tue, Apr 21
81 °FSunny.7 mph28%29.58 "Hg8 mi
12:33 PM79 °FSunny.5 mph30%30.24 "Hg8 mi
11:26 AM75 °FSleet. Cloudy.N/A36%30.27 "HgN/A
10:49 AM72 °FSunny.5 mph47%30.28 "Hg5 mi
10:20 AM70 °FSunny.7 mph53%30.29 "Hg4 mi
9:20 AM66 °FFog.5 mph68%30.31 "Hg3 mi
8:24 AM61 °FFog.7 mph83%30.30 "Hg3 mi
7:21 AM61 °FFog.9 mph83%30.29 "Hg3 mi
6:50 AM61 °FPassing clouds.6 mph83%29.72 "Hg4 mi
3:47 AM61 °FClear.5 mph77%29.65 "Hg10 mi
2:53 AM66 °FClear.5 mph52%30.26 "Hg10 mi
1:50 AM68 °FClear.6 mph43%30.26 "Hg10 mi
1:04 AM70 °FClear.8 mph40%29.65 "Hg10 mi
12:58 AM70 °FClear.5 mph43%30.26 "Hg10 mi
11:51 PM
Mon, Apr 20
70 °FClear.5 mph43%30.26 "Hg10 mi
10:41 PM72 °FPassing clouds.6 mph36%30.25 "Hg12 mi
9:46 PM73 °FPassing clouds.9 mph33%29.66 "Hg12 mi
8:50 PM73 °FSunny.7 mph36%30.19 "Hg10 mi
7:45 PM77 °FPassing clouds.9 mph30%30.14 "Hg10 mi
5:48 PM81 °FScattered clouds.14 mph26%30.12 "Hg8 mi
4:45 PM81 °FScattered clouds.15 mph24%30.12 "Hg8 mi
3:47 PM81 °FPassing clouds.5 mph23%29.59 "Hg8 mi
2:45 PM81 °FPassing clouds.6 mph23%30.17 "Hg8 mi
Weather by CustomWeather, © 2015

See weather overviewHow to use our weather pages